| time (UTC) | temp C | wind direction | speed KPH | gust KPH | rain 1hr cm | rain 24hr cm | rain mn cm | humidity % | barometer mb |
| 20260906082544 | 27 | 8 | 6.4 | 12.9 | 0.00 | 0.00 | 0.00 | 48 | 1017.3 |
| 20260906081525 | 27 | 2 | 6.4 | 12.9 | 0.00 | 0.00 | 0.00 | 50 | 1017.5 |
| 20260906080521 | 27 | 11 | 6.4 | 12.9 | 0.00 | 0.00 | 0.00 | 47 | 1017.6 |
| 20260906075521 | 27 | 11 | 4.8 | 11.3 | 0.00 | 0.00 | 0.00 | 50 | 1017.7 |
| 20260906074518 | 26 | 355 | 4.8 | 11.3 | 0.00 | 0.00 | 0.00 | 52 | 1017.7 |
| 20260906073525 | 25 | 19 | 6.4 | 11.3 | 0.00 | 0.00 | 0.00 | 58 | 1017.4 |
| 20260906072517 | 25 | 12 | 4.8 | 9.7 | 0.00 | 0.00 | 0.00 | 59 | 1017.4 |
| 20260906071539 | 25 | 354 | 4.8 | 9.7 | 0.00 | 0.00 | 0.00 | 59 | 1017.4 |
| 20260906070525 | 25 | 7 | 3.2 | 6.4 | 0.00 | 0.00 | 0.00 | 57 | 1017.3 |
| 20260906065524 | 25 | 4 | 3.2 | 4.8 | 0.00 | 0.00 | 0.00 | 55 | 1017.2 |
| 20260906064525 | 25 | 15 | 1.6 | 4.8 | 0.00 | 0.00 | 0.00 | 54 | 1017.1 |
| 20260906063525 | 26 | 22 | 0.0 | 3.2 | 0.00 | 0.00 | 0.00 | 54 | 1017.0 |
| 20260906062516 | 25 | 43 | 1.6 | 3.2 | 0.00 | 0.00 | 0.00 | 56 | 1016.9 |
| 20260906061520 | 25 | 0.0 | 0.0 | 0.00 | 0.00 | 0.00 | 58 | 1016.8 | |
| 20260906060522 | 25 | 43 | 1.6 | 3.2 | 0.00 | 0.00 | 0.00 | 61 | 1016.9 |
| 20260906055525 | 25 | 32 | 3.2 | 4.8 | 0.00 | 0.00 | 0.00 | 60 | 1016.9 |
| 20260906054523 | 25 | 33 | 1.6 | 3.2 | 0.00 | 0.00 | 0.00 | 59 | 1017.0 |
| 20260906053521 | 24 | 16 | 1.6 | 3.2 | 0.00 | 0.00 | 0.00 | 60 | 1016.8 |
| 20260906052542 | 25 | 21 | 1.6 | 3.2 | 0.00 | 0.00 | 0.00 | 59 | 1016.8 |
| 20260906051516 | 25 | 15 | 0.0 | 1.6 | 0.00 | 0.00 | 0.00 | 60 | 1016.6 |
| 20260906050519 | 24 | 0.0 | 0.0 | 0.00 | 0.00 | 0.00 | 62 | 1016.5 | |
| 20260906045536 | 23 | 13 | 1.6 | 3.2 | 0.00 | 0.00 | 0.00 | 63 | 1016.6 |
| 20260906044520 | 23 | 348 | 1.6 | 3.2 | 0.00 | 0.00 | 0.00 | 54 | 1016.4 |
| 20260906043522 | 22 | 61 | 1.6 | 4.8 | 0.00 | 0.00 | 0.00 | 57 | 1016.1 |
| 20260906042541 | 22 | 0.0 | 0.0 | 0.00 | 0.00 | 0.00 | 48 | 1016.2 | |
| 20260906041522 | 22 | 0.0 | 0.0 | 0.00 | 0.00 | 0.00 | 49 | 1016.1 | |
| 20260906040524 | 22 | 0.0 | 0.0 | 0.00 | 0.00 | 0.00 | 51 | 1016.2 | |
| 20260906035537 | 22 | 340 | 0.0 | 1.6 | 0.00 | 0.00 | 0.00 | 51 | 1016.1 |
| 20260906034521 | 22 | 0.0 | 0.0 | 0.00 | 0.00 | 0.00 | 50 | 1016.0 | |
| 20260906033541 | 22 | 0.0 | 0.0 | 0.00 | 0.00 | 0.00 | 49 | 1016.0 | |
| 20260906032517 | 22 | 0.0 | 0.0 | 0.00 | 0.00 | 0.00 | 49 | 1016.1 | |
| 20260906031517 | 22 | 340 | 0.0 | 3.2 | 0.00 | 0.00 | 0.00 | 49 | 1015.9 |
| 20260906030524 | 22 | 0.0 | 0.0 | 0.00 | 0.00 | 0.00 | 50 | 1015.9 | |
| 20260906025516 | 22 | 0.0 | 0.0 | 0.00 | 0.00 | 0.00 | 51 | 1015.9 | |
| 20260906024520 | 22 | 0.0 | 0.0 | 0.00 | 0.00 | 0.00 | 52 | 1015.9 | |
| 20260906023538 | 22 | 0.0 | 0.0 | 0.00 | 0.00 | 0.00 | 51 | 1015.8 | |
| 20260906022523 | 22 | 0.0 | 0.0 | 0.00 | 0.00 | 0.00 | 50 | 1015.9 | |
| 20260906021546 | 23 | 0.0 | 0.0 | 0.00 | 0.00 | 0.00 | 49 | 1015.8 | |
| 20260906020536 | 23 | 0.0 | 0.0 | 0.00 | 0.00 | 0.00 | 49 | 1015.7 | |
| 20260906015545 | 23 | 0.0 | 0.0 | 0.00 | 0.00 | 0.00 | 48 | 1015.7 | |
| 20260906014525 | 23 | 0.0 | 0.0 | 0.00 | 0.00 | 0.00 | 46 | 1015.7 | |
| 20260906013519 | 24 | 0.0 | 0.0 | 0.00 | 0.00 | 0.00 | 44 | 1015.6 | |
| 20260906012524 | 24 | 341 | 1.6 | 3.2 | 0.00 | 0.00 | 0.00 | 43 | 1015.7 |
| 20260906011523 | 24 | 3 | 0.0 | 1.6 | 0.00 | 0.00 | 0.00 | 44 | 1015.6 |
| 20260906010523 | 24 | 6 | 0.0 | 3.2 | 0.00 | 0.00 | 0.00 | 44 | 1015.6 |
| 20260906005521 | 24 | 359 | 1.6 | 3.2 | 0.00 | 0.00 | 0.00 | 44 | 1015.6 |
| 20260906004536 | 24 | 342 | 1.6 | 4.8 | 0.00 | 0.00 | 0.00 | 45 | 1015.7 |
| 20260906003519 | 24 | 353 | 0.0 | 1.6 | 0.00 | 0.00 | 0.00 | 47 | 1015.6 |
| 20260906002520 | 24 | 13 | 1.6 | 1.6 | 0.00 | 0.00 | 0.00 | 47 | 1015.7 |
| 20260906001521 | 24 | 14 | 1.6 | 4.8 | 0.00 | 0.00 | 0.00 | 48 | 1015.7 |
| 20260906000526 | 24 | 11 | 3.2 | 6.4 | 0.00 | 0.00 | 0.00 | 47 | 1015.8 |
| 20260905235542 | 24 | 4 | 1.6 | 3.2 | 0.00 | 0.00 | 0.00 | 46 | 1015.8 |
| 20260905234517 | 24 | 355 | 3.2 | 4.8 | 0.00 | 0.00 | 0.00 | 46 | 1015.6 |
| 20260905233517 | 24 | 4 | 1.6 | 4.8 | 0.00 | 0.00 | 0.00 | 47 | 1015.7 |
| 20260905232525 | 24 | 341 | 1.6 | 3.2 | 0.00 | 0.00 | 0.00 | 47 | 1015.6 |
| 20260905231523 | 24 | 0.0 | 0.0 | 0.00 | 0.00 | 0.00 | 49 | 1015.7 | |
| 20260905230522 | 24 | 351 | 0.0 | 1.6 | 0.00 | 0.00 | 0.00 | 51 | 1015.7 |
| 20260905225519 | 25 | 0.0 | 0.0 | 0.00 | 0.00 | 0.00 | 48 | 1015.8 | |
| 20260905224523 | 25 | 359 | 0.0 | 3.2 | 0.00 | 0.00 | 0.00 | 50 | 1015.9 |
| 20260905223516 | 25 | 356 | 3.2 | 4.8 | 0.00 | 0.00 | 0.00 | 46 | 1015.9 |
| 20260905222542 | 26 | 357 | 3.2 | 6.4 | 0.00 | 0.00 | 0.00 | 41 | 1015.8 |
| 20260905221522 | 26 | 355 | 3.2 | 4.8 | 0.00 | 0.00 | 0.00 | 40 | 1015.8 |
| 20260905220540 | 26 | 346 | 6.4 | 11.3 | 0.00 | 0.00 | 0.00 | 38 | 1015.8 |
| 20260905215521 | 26 | 336 | 4.8 | 11.3 | 0.00 | 0.00 | 0.00 | 37 | 1015.7 |
| 20260905214544 | 26 | 340 | 4.8 | 11.3 | 0.00 | 0.00 | 0.00 | 36 | 1015.7 |
| 20260905213523 | 26 | 342 | 6.4 | 16.1 | 0.00 | 0.00 | 0.00 | 37 | 1015.8 |
| 20260905212521 | 26 | 346 | 4.8 | 14.5 | 0.00 | 0.00 | 0.00 | 38 | 1015.9 |
| 20260905211521 | 26 | 351 | 3.2 | 9.7 | 0.00 | 0.00 | 0.00 | 41 | 1016.0 |
| 20260905210525 | 26 | 14 | 3.2 | 4.8 | 0.00 | 0.00 | 0.00 | 40 | 1016.0 |
| 20260905205518 | 26 | 12 | 0.0 | 1.6 | 0.00 | 0.00 | 0.00 | 43 | 1015.9 |
| 20260905204541 | 27 | 20 | 1.6 | 4.8 | 0.00 | 0.00 | 0.00 | 41 | 1015.9 |
| 20260905203525 | 27 | 348 | 3.2 | 9.7 | 0.00 | 0.00 | 0.00 | 38 | 1016.0 |
| 20260905202525 | 27 | 341 | 4.8 | 11.3 | 0.00 | 0.00 | 0.00 | 38 | 1015.9 |
| 20260905201520 | 27 | 338 | 4.8 | 11.3 | 0.00 | 0.00 | 0.00 | 39 | 1015.8 |
| 20260905200521 | 27 | 347 | 4.8 | 6.4 | 0.00 | 0.00 | 0.00 | 39 | 1015.8 |
| 20260905195519 | 27 | 342 | 4.8 | 11.3 | 0.00 | 0.00 | 0.00 | 38 | 1015.7 |
| 20260905194520 | 27 | 350 | 4.8 | 11.3 | 0.00 | 0.00 | 0.00 | 37 | 1015.8 |
| 20260905193517 | 28 | 336 | 4.8 | 11.3 | 0.00 | 0.00 | 0.00 | 37 | 1015.8 |
| 20260905192520 | 28 | 333 | 4.8 | 12.9 | 0.00 | 0.00 | 0.00 | 36 | 1015.8 |
| 20260905191521 | 28 | 345 | 4.8 | 12.9 | 0.00 | 0.00 | 0.00 | 36 | 1015.7 |
| 20260905190539 | 28 | 342 | 6.4 | 14.5 | 0.00 | 0.00 | 0.00 | 36 | 1015.7 |
| 20260905185524 | 28 | 347 | 6.4 | 17.7 | 0.00 | 0.00 | 0.00 | 35 | 1015.7 |
| 20260905184525 | 28 | 338 | 9.7 | 20.9 | 0.00 | 0.00 | 0.00 | 35 | 1015.4 |
| 20260905183519 | 28 | 344 | 9.7 | 14.5 | 0.00 | 0.00 | 0.00 | 35 | 1015.4 |
| 20260905182520 | 28 | 340 | 8.0 | 17.7 | 0.00 | 0.00 | 0.00 | 35 | 1015.4 |
| 20260905181543 | 28 | 338 | 9.7 | 20.9 | 0.00 | 0.00 | 0.00 | 34 | 1015.2 |
| 20260905180518 | 28 | 334 | 8.0 | 17.7 | 0.00 | 0.00 | 0.00 | 34 | 1015.2 |
| 20260905175520 | 28 | 343 | 8.0 | 14.5 | 0.00 | 0.00 | 0.00 | 35 | 1015.2 |
| 20260905174525 | 28 | 336 | 8.0 | 14.5 | 0.00 | 0.00 | 0.00 | 36 | 1015.0 |
| 20260905173521 | 29 | 347 | 6.4 | 12.9 | 0.00 | 0.00 | 0.00 | 36 | 1015.0 |
| 20260905172524 | 29 | 347 | 8.0 | 20.9 | 0.00 | 0.00 | 0.00 | 35 | 1014.9 |
| 20260905171522 | 30 | 344 | 8.0 | 16.1 | 0.00 | 0.00 | 0.00 | 35 | 1014.7 |
| 20260905170524 | 30 | 342 | 9.7 | 16.1 | 0.00 | 0.00 | 0.00 | 35 | 1014.6 |
| 20260905165516 | 30 | 342 | 8.0 | 16.1 | 0.00 | 0.00 | 0.00 | 36 | 1014.4 |
| 20260905164521 | 30 | 347 | 6.4 | 14.5 | 0.00 | 0.00 | 0.00 | 37 | 1014.3 |
| 20260905163540 | 30 | 338 | 8.0 | 14.5 | 0.00 | 0.00 | 0.00 | 37 | 1014.3 |
| 20260905162537 | 30 | 350 | 4.8 | 12.9 | 0.00 | 0.00 | 0.00 | 38 | 1014.2 |
| 20260905161523 | 30 | 354 | 4.8 | 11.3 | 0.00 | 0.00 | 0.00 | 40 | 1014.2 |
| 20260905160521 | 31 | 353 | 6.4 | 14.5 | 0.00 | 0.00 | 0.00 | 38 | 1014.1 |
| 20260905155540 | 31 | 348 | 6.4 | 14.5 | 0.00 | 0.00 | 0.00 | 39 | 1014.1 |
| 20260905154525 | 31 | 353 | 6.4 | 12.9 | 0.00 | 0.00 | 0.00 | 40 | 1014.0 |
| 20260905153519 | 30 | 341 | 6.4 | 14.5 | 0.00 | 0.00 | 0.00 | 42 | 1014.0 |
| 20260905152520 | 30 | 344 | 4.8 | 11.3 | 0.00 | 0.00 | 0.00 | 50 | 1014.1 |
| 20260905151518 | 29 | 10 | 8.0 | 16.1 | 0.00 | 0.00 | 0.00 | 49 | 1014.1 |
| 20260905150522 | 30 | 13 | 8.0 | 16.1 | 0.00 | 0.00 | 0.00 | 48 | 1014.1 |
| 20260905145525 | 30 | 357 | 3.2 | 9.7 | 0.00 | 0.00 | 0.00 | 46 | 1014.0 |
| 20260905144522 | 30 | 14 | 6.4 | 12.9 | 0.00 | 0.00 | 0.00 | 44 | 1014.1 |
| 20260905143522 | 31 | 11 | 6.4 | 12.9 | 0.00 | 0.00 | 0.00 | 41 | 1014.2 |
| 20260905142517 | 31 | 18 | 9.7 | 20.9 | 0.00 | 0.00 | 0.00 | 37 | 1014.2 |
| 20260905141545 | 32 | 17 | 8.0 | 14.5 | 0.00 | 0.00 | 0.00 | 32 | 1014.2 |
| 20260905140517 | 32 | 358 | 6.4 | 12.9 | 0.00 | 0.00 | 0.00 | 27 | 1014.1 |
| 20260905135519 | 32 | 355 | 6.4 | 14.5 | 0.00 | 0.00 | 0.00 | 29 | 1014.2 |
| 20260905134525 | 32 | 353 | 8.0 | 14.5 | 0.00 | 0.00 | 0.00 | 30 | 1014.2 |
| 20260905133516 | 32 | 352 | 6.4 | 14.5 | 0.00 | 0.00 | 0.00 | 30 | 1014.3 |
| 20260905132524 | 32 | 351 | 8.0 | 16.1 | 0.00 | 0.00 | 0.00 | 30 | 1014.3 |
| 20260905131540 | 32 | 358 | 8.0 | 17.7 | 0.00 | 0.00 | 0.00 | 30 | 1014.4 |
| 20260905130523 | 32 | 347 | 8.0 | 16.1 | 0.00 | 0.00 | 0.00 | 30 | 1014.5 |
| 20260905125517 | 32 | 353 | 8.0 | 16.1 | 0.00 | 0.00 | 0.00 | 32 | 1014.5 |
| 20260905124516 | 32 | 347 | 9.7 | 24.1 | 0.00 | 0.00 | 0.00 | 31 | 1014.6 |
| 20260905123521 | 32 | 344 | 9.7 | 20.9 | 0.00 | 0.00 | 0.00 | 30 | 1014.7 |
| 20260905122520 | 31 | 345 | 11.3 | 20.9 | 0.00 | 0.00 | 0.00 | 32 | 1014.7 |
| 20260905121518 | 31 | 345 | 8.0 | 16.1 | 0.00 | 0.00 | 0.00 | 35 | 1014.8 |
| 20260905120524 | 31 | 1 | 8.0 | 16.1 | 0.00 | 0.00 | 0.00 | 36 | 1014.9 |
| 20260905115517 | 31 | 351 | 9.7 | 17.7 | 0.00 | 0.00 | 0.00 | 36 | 1015.0 |
| 20260905114520 | 31 | 6 | 8.0 | 14.5 | 0.00 | 0.00 | 0.00 | 38 | 1015.1 |
| 20260905113522 | 30 | 2 | 8.0 | 14.5 | 0.00 | 0.00 | 0.00 | 39 | 1015.3 |
| 20260905112537 | 30 | 352 | 9.7 | 20.9 | 0.00 | 0.00 | 0.00 | 40 | 1015.3 |
| 20260905111522 | 30 | 1 | 9.7 | 16.1 | 0.00 | 0.00 | 0.00 | 40 | 1015.4 |
| 20260905110518 | 30 | 348 | 8.0 | 14.5 | 0.00 | 0.00 | 0.00 | 41 | 1015.5 |
| 20260905105522 | 30 | 5 | 8.0 | 16.1 | 0.00 | 0.00 | 0.00 | 41 | 1015.6 |
| 20260905104519 | 30 | 356 | 9.7 | 17.7 | 0.00 | 0.00 | 0.00 | 43 | 1015.6 |
| 20260905103526 | 29 | 340 | 8.0 | 16.1 | 0.00 | 0.00 | 0.00 | 45 | 1015.8 |
| 20260905102540 | 29 | 345 | 11.3 | 17.7 | 0.00 | 0.00 | 0.00 | 45 | 1015.8 |
| 20260905101526 | 28 | 354 | 9.7 | 22.5 | 0.00 | 0.00 | 0.00 | 47 | 1016.0 |
| 20260905100520 | 28 | 355 | 11.3 | 22.5 | 0.00 | 0.00 | 0.00 | 48 | 1015.9 |
| 20260905095523 | 28 | 344 | 8.0 | 16.1 | 0.00 | 0.00 | 0.00 | 48 | 1016.0 |
| 20260905094518 | 28 | 348 | 8.0 | 17.7 | 0.00 | 0.00 | 0.00 | 49 | 1016.0 |
| 20260905093522 | 28 | 358 | 9.7 | 17.7 | 0.00 | 0.00 | 0.00 | 48 | 1016.0 |
| 20260905092536 | 28 | 5 | 9.7 | 20.9 | 0.00 | 0.00 | 0.00 | 49 | 1016.1 |
| 20260905091521 | 28 | 1 | 8.0 | 17.7 | 0.00 | 0.00 | 0.00 | 48 | 1016.1 |
| 20260905090524 | 28 | 342 | 9.7 | 17.7 | 0.00 | 0.00 | 0.00 | 47 | 1016.2 |
| 20260905085520 | 28 | 348 | 8.0 | 16.1 | 0.00 | 0.00 | 0.00 | 45 | 1016.2 |
| 20260905084516 | 28 | 348 | 8.0 | 14.5 | 0.00 | 0.00 | 0.00 | 46 | 1016.3 |
| 20260905083525 | 27 | 345 | 9.7 | 16.1 | 0.00 | 0.00 | 0.00 | 47 | 1016.4 |